Flag for Spain Weather past 2 weeks in Alicante, Spain

Now
75 °F

Clear.


Feels Like: 76 °F
Forecast: 72 / 87 °F
Wind: 2 mph from North

Location: Alicante / El Altet

Current Time: Aug 28, 2015 at 3:19:10 AM

Latest Report: Aug 28, 2015 at 3:00 AM


Visibility: 10 mi

Pressure: 30.01 "Hg

Humidity: 78%

Dew point: 68 °F

Location of AlicanteLocation

Historic Weather in Alicante — Graph

°F

Alicante temperature yesterday

Maximum temperature yesterday: 86 °F (at 1:00 PM)
Minimum temperature yesterday: 70 °F (at 7:30 AM)
Average temperature yesterday: 79 °F

Past Weeks' High & Low Weather Summary

 TemperatureHumidityPressure
High102 °F (Aug 13, 4:00 PM)89% (Aug 13, 2:00 AM)30.18 "Hg (Aug 13, 2:00 AM)
Low70 °F (Aug 27, 7:30 AM)9% (Aug 13, 4:30 PM)29.74 "Hg (Aug 23, 6:30 PM)
Average81 °F60%29.96 "Hg
* Reported Aug 13 2:00 AM — Aug 28 2:00 AM, Alicante, Weather by CustomWeather, © 2015

Note: Actual official high and low records may vary slightly from our data, if they occured in-between our weather recording intervals... More about our weather records

Advertising

Alicante weather history for previous 24 hours

 ConditionsComfort  
Time TempWeatherWind HumidityBarometerVisibility
2:00 AM
Fri, Aug 28
73 °FClear.1 mph83%30.01 "Hg10 mi
1:30 AM75 °FClear.2 mph78%30.01 "Hg10 mi
1:00 AM75 °FClear.2 mph78%30.01 "Hg10 mi
12:30 AM75 °FClear.2 mph78%30.01 "Hg10 mi
12:00 AM75 °FClear.1 mph78%30.01 "Hg10 mi
11:30 PM
Thu, Aug 27
79 °FClear.No wind74%30.01 "Hg10 mi
11:00 PM79 °FClear.No wind74%30.01 "Hg10 mi
10:30 PM79 °FClear.2 mph74%30.01 "Hg10 mi
10:00 PM79 °FPassing clouds.3 mph74%29.98 "HgN/A
9:30 PM79 °FSunny.2 mph74%29.98 "Hg10 mi
9:00 PM81 °FSunny.2 mph66%29.98 "Hg10 mi
8:30 PM81 °FSunny.2 mph70%29.95 "Hg10 mi
8:00 PM81 °FPassing clouds.6 mph66%29.95 "HgN/A
7:30 PM82 °FPassing clouds.6 mph62%29.95 "HgN/A
7:00 PM82 °FPassing clouds.7 mph62%29.95 "HgN/A
6:30 PM84 °FPassing clouds.8 mph55%29.95 "HgN/A
6:00 PM84 °FPassing clouds.7 mph55%29.95 "HgN/A
5:30 PM84 °FPassing clouds.8 mph55%29.95 "HgN/A
5:00 PM84 °FPassing clouds.8 mph55%29.98 "HgN/A
4:30 PM86 °FPassing clouds.6 mph49%29.98 "HgN/A
4:00 PM84 °FPassing clouds.7 mph51%29.98 "HgN/A
3:30 PM84 °FPassing clouds.7 mph58%30.01 "HgN/A
3:00 PM84 °FPassing clouds.8 mph58%30.01 "HgN/A
2:30 PM84 °FPassing clouds.10 mph58%30.01 "HgN/A
2:00 PM86 °FPassing clouds.10 mph55%30.01 "HgN/A
1:30 PM86 °FPassing clouds.12 mph52%30.01 "HgN/A
1:00 PM86 °FPassing clouds.5 mph49%30.04 "HgN/A
12:30 PM84 °FPassing clouds.8 mph55%30.04 "HgN/A
12:00 PM84 °FPassing clouds.7 mph55%30.04 "HgN/A
11:30 AM84 °FPassing clouds.8 mph45%30.01 "HgN/A
11:00 AM82 °FPassing clouds.9 mph51%30.01 "HgN/A
10:30 AM82 °FPassing clouds.9 mph55%29.98 "HgN/A
10:00 AM81 °FPassing clouds.7 mph48%30.01 "HgN/A
9:30 AM79 °FPassing clouds.2 mph51%29.98 "HgN/A
9:00 AM77 °FPassing clouds.1 mph54%29.98 "HgN/A
8:30 AM73 °FPassing clouds.1 mph69%30.01 "HgN/A
8:00 AM72 °FClear.1 mph69%30.01 "Hg10 mi
7:30 AM70 °FClear.2 mph78%29.98 "Hg10 mi
7:00 AM72 °FClear.6 mph73%29.98 "Hg10 mi
6:00 AM72 °FClear.7 mph78%29.98 "Hg10 mi
5:30 AM72 °FClear.3 mph83%29.98 "Hg10 mi
4:30 AM75 °FClear.6 mph78%30.01 "Hg10 mi
4:00 AM73 °FClear.5 mph83%30.01 "Hg10 mi
3:30 AM72 °FClear.2 mph83%30.01 "Hg10 mi
3:00 AM73 °FClear.2 mph83%30.01 "Hg10 mi
Weather by CustomWeather, © 2015

See weather overviewHow to use our weather pages